Wind_Speed
32 29 28 27 27 27 27 27 26 24 22 21 22 22 22 22 21 19 19 18 17 17 17 16 15 15 15 15 15 15 15 15 15 16 16 15 16 16 16 15 15 16 16 17
33 31 29 29 28 27 27 27 27 26 25 24 25 25 25 24 24 21 21 20 20 19 18 18 17 16 16 16 16 16 16 16 16 16 16 16 17 18 17 16 16 17 17 18
34 32 31 31 29 28 28 28 28 27 26 26 28 28 29 28 25 22 22 22 22 22 21 19 18 18 17 16 16 17 17 17 17 17 18 18 18 19 18 17 17 18 18 18
37 34 34 32 28 28 28 29 29 28 29 29 29 30 30 29 27 24 24 25 24 24 23 21 20 19 19 18 17 17 17 18 18 18 19 19 20 20 18 18 18 18 18 19
37 36 35 33 31 30 29 30 30 31 31 30 30 31 32 31 29 28 27 27 27 26 24 23 22 22 21 20 19 19 19 19 20 20 20 20 20 20 18 18 18 18 18 19
38 37 35 34 32 32 32 33 32 32 32 31 32 32 32 31 30 29 27 27 28 27 26 25 24 24 23 23 22 21 21 21 22 21 21 21 21 19 19 18 18 19 19 19
37 37 36 34 34 34 35 35 34 34 34 33 33 33 33 33 31 29 28 28 28 28 28 27 26 26 25 25 24 24 24 23 23 23 22 21 21 21 20 19 20 20 20 20
38 37 36 36 34 35 37 36 36 35 35 36 35 35 35 34 33 32 31 30 29 29 29 28 28 28 27 27 26 25 25 25 25 24 24 23 22 21 21 21 21 21 21 21
38 38 38 38 37 37 38 37 37 37 37 36 36 35 35 35 35 34 32 32 31 30 30 30 30 29 29 28 28 27 27 26 26 25 24 24 24 23 22 22 23 23 23 23
37 38 40 39 39 39 40 39 38 37 37 37 36 36 35 36 36 35 34 33 33 32 31 31 31 31 31 30 30 29 29 28 27 27 26 26 25 25 24 24 24 24 24 24
38 38 40 41 40 40 38 38 38 38 37 37 37 36 36 36 37 36 35 35 34 34 33 33 33 32 32 32 31 31 30 30 29 29 28 27 27 27 27 26 26 25 25 25
38 39 40 41 41 40 39 39 39 38 38 37 37 37 36 36 36 36 35 35 35 35 35 34 34 33 33 33 32 32 32 31 30 30 29 29 28 28 28 29 28 28 28 27
36 37 38 40 40 40 39 39 39 39 38 37 37 37 37 36 36 37 36 36 36 36 35 34 34 34 34 33 33 33 32 32 31 31 31 30 29 29 30 30 30 30 30 28
35 35 37 38 38 39 39 39 39 39 39 38 38 37 36 37 36 36 36 36 35 35 34 33 33 33 34 34 33 33 33 32 31 32 32 31 31 31 31 31 31 32 31 29
35 35 37 37 38 39 38 38 38 38 38 38 37 36 36 36 36 36 35 36 35 34 33 33 33 33 33 34 34 34 33 33 33 33 32 32 32 32 32 32 32 32 32 30
35 35 35 36 36 37 37 37 36 36 36 37 37 37 36 36 35 35 34 34 34 34 33 32 32 32 32 32 32 32 33 33 33 33 33 32 32 33 32 31 31 31 30 29
33 34 34 35 35 36 36 36 36 35 36 37 36 36 35 35 35 34 34 33 33 33 32 31 32 32 32 32 32 33 33 34 34 33 33 32 31 31 31 31 31 30 29 29
32 33 33 34 35 35 36 36 36 36 36 36 36 35 34 35 35 34 34 33 33 32 31 31 30 30 31 31 32 32 32 31 31 31 30 30 30 30 30 30 29 28 28 28
30 32 32 33 33 34 35 35 35 35 35 35 35 34 33 34 35 34 33 33 32 31 31 31 31 30 31 31 31 30 31 30 29 29 29 29 29 29 29 29 28 28 28 28
29 30 31 31 32 33 34 33 33 34 33 33 33 33 33 34 34 34 33 33 32 31 31 31 31 31 31 31 31 30 29 29 29 28 28 28 28 28 28 27 27 28 28 28
29 29 30 30 30 31 31 31 32 32 32 32 33 33 33 34 34 34 33 33 32 31 32 32 31 31 31 30 28 28 28 28 28 28 28 28 28 27 27 26 27 28 29 29
27 27 26 27 27 28 29 30 31 31 31 31 31 32 32 33 33 33 33 33 34 32 32 31 30 30 30 28 27 27 26 27 27 28 28 28 28 28 28 28 29 29 29 29
27 26 26 27 26 27 28 29 29 29 29 29 30 30 31 32 32 32 33 32 33 33 32 31 31 29 28 27 27 27 27 27 27 28 28 28 28 28 29 29 28 27 27 27
23 24 25 26 26 27 26 26 27 27 27 27 28 28 29 29 30 30 30 30 31 31 31 30 29 29 30 29 28 28 27 27 27 27 28 28 28 27 27 28 27 27 27 27
20 21 21 23 24 24 24 24 24 24 25 25 25 25 26 26 27 27 27 28 29 29 30 29 29 29 29 29 29 28 27 27 27 26 26 25 26 26 27 27 27 27 27 26
18 19 20 20 20 21 22 22 22 22 22 22 23 24 25 25 24 24 25 26 26 27 27 27 27 27 27 27 27 27 27 26 26 26 26 25 26 26 26 26 27 26 26 25
16 17 17 17 18 19 19 20 20 21 21 21 21 22 23 22 22 22 22 22 22 22 23 23 24 24 25 25 26 26 25 25 25 25 25 25 25 26 26 26 26 26 25 25
Wind_Direction
220 221 228 234 235 235 232 229 232 234 237 246 253 257 260 262 262 261 263 268 274 278 281 284 289 296 302 307 310 311 314 317 320 321 321 322 322 321 322 319 319 322 323 323
223 221 224 230 232 233 235 234 234 234 235 238 248 255 258 259 260 259 261 263 268 271 276 279 284 290 297 301 305 308 310 313 316 318 319 318 318 318 317 316 317 320 320 320
225 225 227 230 229 232 234 234 236 237 238 242 246 251 255 257 256 257 259 261 263 267 270 274 277 283 290 295 300 304 306 308 311 312 314 314 315 316 314 313 315 318 318 318
227 226 230 230 230 234 237 236 237 238 239 242 246 250 255 260 260 257 259 260 261 264 267 270 274 279 284 290 295 299 303 305 307 309 312 312 314 316 312 310 314 316 313 314
228 230 234 233 232 233 236 238 239 240 241 243 245 249 253 256 259 260 259 259 260 262 264 266 270 275 280 285 290 295 299 302 304 306 308 311 312 313 312 309 310 312 313 313
230 230 233 235 236 236 239 241 240 241 242 243 246 250 253 256 259 258 260 261 261 261 261 263 267 271 276 281 285 289 294 298 301 302 304 308 310 309 309 310 311 310 311 312
232 232 234 235 237 238 239 241 242 243 242 242 244 247 251 255 258 260 261 262 261 260 261 262 264 268 272 276 280 284 288 293 296 297 299 302 305 304 303 306 308 308 309 310
234 232 233 235 235 238 241 243 244 245 245 245 245 248 250 253 255 258 259 261 261 261 261 261 263 265 268 272 275 279 283 287 290 292 295 297 300 301 300 302 304 305 306 306
234 233 234 235 236 240 242 243 244 245 246 248 249 250 250 251 252 254 257 259 260 262 262 261 261 263 266 269 273 275 279 283 285 287 290 293 294 297 298 298 300 301 301 303
237 237 235 236 238 239 241 243 244 245 247 248 249 251 252 252 252 253 255 257 259 261 262 262 262 262 264 266 270 272 275 277 280 284 287 289 289 290 293 295 296 297 298 300
235 238 237 237 238 240 242 244 244 245 247 248 249 251 253 253 254 255 255 257 258 260 262 262 262 262 263 264 266 268 270 273 276 280 283 286 288 288 288 290 293 296 295 296
233 235 237 238 240 241 243 245 246 247 248 250 251 251 253 254 255 254 255 256 257 258 260 261 261 261 261 262 264 265 268 271 273 276 279 283 286 287 287 288 290 291 293 293
236 237 239 240 241 242 244 245 247 248 249 250 250 251 253 254 254 254 255 257 257 257 259 260 260 260 259 260 262 263 265 268 271 273 276 280 283 285 285 286 287 289 291 291
241 242 243 244 245 246 247 247 248 248 250 251 252 253 254 254 254 254 255 257 257 257 257 258 259 258 257 258 260 262 264 266 269 271 275 279 281 283 283 283 285 288 290 290
241 243 245 246 247 249 249 249 249 249 249 250 251 252 253 253 254 254 255 255 255 256 257 258 258 257 256 256 258 260 262 264 267 270 273 276 278 281 281 281 284 286 288 289
243 244 245 246 248 249 249 249 250 249 249 249 250 251 252 253 253 252 253 254 253 254 256 256 256 256 255 256 258 258 259 262 265 268 271 274 276 279 282 283 284 285 286 288
246 245 245 246 247 248 249 249 250 248 248 249 250 252 252 252 252 251 251 252 252 253 253 255 255 255 255 257 260 260 260 262 264 266 269 272 274 277 281 284 284 284 286 287
247 246 246 247 247 247 247 249 249 247 247 248 248 250 251 250 250 249 249 250 250 250 252 253 255 255 256 258 260 261 263 264 265 266 268 272 274 276 280 282 282 283 286 287
246 245 245 246 246 245 246 247 247 245 246 247 248 249 248 248 248 248 248 248 248 250 251 252 253 254 256 258 258 260 262 264 264 266 268 270 273 276 278 279 280 282 285 287
247 245 245 245 246 246 246 246 245 244 245 247 248 248 248 248 248 248 247 248 249 252 252 252 252 253 254 257 257 259 262 263 265 267 268 268 271 273 275 277 279 282 284 285
249 248 247 247 246 245 244 244 244 245 246 247 247 248 248 247 247 247 247 247 249 252 252 253 252 252 253 254 256 259 262 264 264 265 267 267 269 272 275 276 278 281 284 286
246 246 246 244 243 244 245 244 244 244 245 247 249 250 249 247 247 248 247 247 249 249 250 250 250 251 251 252 256 258 261 262 263 264 265 266 269 272 275 278 280 283 285 288
247 246 244 242 240 241 243 243 242 242 244 247 250 251 249 247 247 247 246 246 249 249 249 248 248 249 251 255 257 258 260 263 265 265 266 267 269 272 275 278 282 285 287 289
249 247 245 244 244 242 241 240 241 242 244 246 248 248 247 244 244 245 246 247 249 250 249 248 248 249 251 253 256 258 262 264 266 267 268 269 271 274 277 280 283 286 287 289
244 242 243 244 244 241 240 239 239 242 245 246 247 248 248 246 245 246 247 248 248 249 250 250 249 250 252 255 258 259 261 263 266 268 269 271 274 276 279 281 283 285 287 288
238 238 241 240 239 238 238 238 239 243 246 247 246 246 246 246 247 247 247 247 248 249 250 250 251 253 255 257 259 260 261 263 266 268 271 272 274 276 278 281 283 285 286 287
236 235 237 239 238 239 239 239 240 243 246 248 247 245 244 243 243 245 247 247 247 248 250 252 253 254 256 258 260 261 263 266 267 267 269 272 275 278 280 282 284 286 287 288
Height
5871 5876 5880 5883 5887 5890 5893 5897 5901 5904 5906 5907 5906 5906 5906 5906 5907 5908 5909 5910 5910 5910 5910 5910 5910 5910 5909 5909 5908 5906 5905 5904 5902 5901 5899 5897 5895 5894 5892 5890 5889 5887 5885 5883
5864 5868 5873 5876 5880 5884 5888 5891 5895 5897 5899 5901 5901 5900 5901 5901 5902 5903 5905 5906 5906 5906 5906 5906 5907 5907 5906 5905 5905 5903 5902 5901 5899 5898 5896 5895 5893 5891 5889 5888 5886 5885 5882 5880
5857 5862 5865 5869 5873 5878 5882 5885 5888 5890 5893 5893 5895 5895 5895 5895 5896 5897 5900 5901 5902 5902 5902 5902 5902 5903 5903 5902 5901 5900 5899 5898 5896 5895 5893 5891 5890 5888 5886 5884 5883 5881 5879 5877
5849 5854 5857 5864 5868 5872 5875 5878 5881 5883 5885 5887 5888 5889 5889 5889 5891 5892 5894 5895 5897 5897 5897 5897 5898 5899 5899 5898 5897 5896 5895 5894 5893 5891 5890 5888 5886 5883 5881 5880 5879 5878 5876 5874
5841 5845 5850 5856 5860 5864 5867 5869 5873 5875 5877 5880 5881 5882 5882 5883 5885 5887 5888 5889 5891 5892 5892 5893 5894 5894 5894 5894 5893 5892 5891 5890 5889 5888 5886 5884 5882 5880 5877 5877 5876 5874 5872 5870
5832 5837 5842 5849 5852 5856 5859 5861 5864 5866 5869 5872 5874 5875 5875 5876 5878 5879 5881 5883 5885 5886 5887 5887 5888 5888 5888 5889 5889 5888 5887 5886 5884 5883 5882 5880 5878 5876 5875 5873 5872 5871 5869 5867
5824 5828 5834 5840 5843 5847 5851 5852 5855 5858 5861 5863 5865 5867 5868 5869 5871 5872 5875 5877 5878 5879 5880 5881 5882 5882 5882 5883 5883 5883 5882 5881 5880 5878 5877 5876 5874 5873 5871 5870 5868 5867 5865 5864
5816 5821 5828 5830 5833 5837 5839 5843 5846 5849 5852 5854 5856 5858 5860 5862 5864 5866 5868 5869 5871 5872 5873 5875 5876 5876 5877 5877 5878 5877 5876 5875 5874 5873 5872 5871 5869 5867 5866 5865 5864 5863 5861 5860
5807 5813 5817 5820 5824 5827 5830 5833 5836 5839 5843 5845 5848 5849 5852 5854 5856 5858 5860 5861 5863 5864 5866 5867 5868 5870 5870 5871 5871 5871 5870 5870 5869 5868 5867 5866 5864 5862 5861 5860 5859 5858 5856 5855
5798 5802 5807 5811 5814 5817 5819 5823 5826 5830 5833 5836 5838 5840 5843 5845 5848 5850 5851 5853 5855 5857 5858 5859 5861 5861 5862 5863 5864 5864 5863 5863 5863 5862 5861 5860 5859 5858 5857 5856 5854 5853 5851 5850
5789 5792 5797 5801 5804 5807 5810 5813 5817 5820 5823 5826 5829 5831 5834 5836 5838 5840 5843 5845 5846 5848 5850 5851 5852 5853 5854 5855 5856 5856 5856 5856 5856 5855 5854 5854 5853 5852 5851 5850 5849 5847 5846 5844
5780 5783 5786 5791 5795 5798 5801 5805 5808 5811 5814 5817 5819 5822 5824 5826 5828 5831 5833 5836 5837 5839 5841 5842 5843 5845 5846 5847 5847 5847 5848 5848 5848 5848 5848 5847 5846 5845 5844 5843 5842 5841 5839 5838
5770 5773 5776 5781 5785 5789 5792 5796 5799 5802 5805 5807 5810 5812 5814 5816 5819 5821 5824 5826 5828 5830 5831 5833 5834 5836 5837 5838 5838 5839 5839 5840 5840 5840 5840 5840 5839 5838 5837 5836 5835 5834 5832 5831
5762 5765 5769 5772 5776 5779 5783 5786 5789 5792 5795 5797 5800 5802 5804 5807 5809 5812 5814 5816 5818 5820 5822 5823 5825 5826 5827 5828 5829 5829 5830 5831 5832 5832 5832 5832 5831 5831 5830 5829 5828 5826 5825 5824
5754 5757 5761 5764 5767 5770 5773 5776 5779 5782 5784 5787 5790 5792 5794 5797 5799 5802 5804 5806 5808 5810 5812 5813 5815 5817 5818 5819 5820 5821 5821 5822 5823 5824 5824 5824 5823 5822 5822 5821 5819 5818 5817 5816
5746 5748 5752 5755 5758 5761 5763 5766 5769 5771 5774 5777 5780 5782 5784 5787 5789 5792 5794 5795 5798 5800 5802 5804 5806 5807 5808 5809 5810 5811 5812 5813 5814 5815 5815 5815 5815 5814 5814 5813 5812 5810 5809 5809
5736 5740 5743 5746 5749 5751 5754 5756 5759 5761 5764 5767 5769 5772 5774 5777 5779 5782 5784 5786 5789 5791 5793 5794 5796 5798 5799 5800 5801 5803 5803 5804 5805 5806 5806 5807 5807 5807 5806 5806 5804 5803 5802 5801
5728 5731 5734 5736 5739 5741 5744 5746 5748 5750 5754 5756 5759 5761 5764 5767 5769 5772 5775 5777 5780 5782 5784 5786 5787 5788 5790 5792 5793 5794 5795 5795 5796 5797 5798 5799 5799 5799 5798 5798 5797 5796 5794 5793
5719 5722 5725 5727 5729 5731 5734 5736 5738 5740 5744 5746 5749 5752 5754 5757 5759 5763 5766 5768 5771 5773 5776 5777 5778 5780 5782 5783 5784 5785 5786 5787 5788 5789 5790 5790 5791 5791 5790 5790 5789 5788 5787 5786
5712 5714 5716 5718 5720 5722 5725 5727 5729 5732 5735 5738 5740 5743 5746 5749 5751 5754 5757 5760 5763 5764 5766 5768 5770 5772 5774 5775 5776 5777 5778 5779 5780 5781 5782 5783 5783 5783 5782 5782 5781 5780 5779 5778
5705 5706 5708 5710 5712 5714 5716 5718 5721 5724 5727 5730 5732 5735 5738 5740 5743 5745 5748 5751 5754 5756 5757 5759 5761 5764 5765 5767 5768 5769 5771 5772 5773 5774 5774 5775 5775 5775 5774 5774 5773 5773 5771 5770
5697 5698 5700 5702 5704 5706 5708 5710 5713 5715 5718 5721 5724 5726 5728 5731 5734 5737 5739 5743 5745 5747 5748 5750 5753 5755 5757 5759 5760 5762 5763 5764 5765 5766 5766 5767 5767 5767 5767 5766 5766 5765 5764 5762
5690 5691 5693 5695 5697 5699 5700 5702 5705 5708 5711 5714 5717 5719 5721 5723 5726 5729 5731 5734 5736 5739 5741 5743 5745 5748 5750 5752 5753 5755 5756 5757 5758 5759 5759 5759 5760 5760 5759 5759 5758 5757 5756 5754
5683 5685 5686 5688 5690 5692 5693 5695 5698 5701 5704 5707 5709 5712 5714 5716 5718 5720 5723 5726 5729 5731 5733 5734 5737 5740 5742 5744 5746 5747 5749 5750 5750 5751 5751 5752 5752 5752 5751 5751 5750 5749 5748 5747
5678 5679 5681 5683 5684 5686 5688 5690 5693 5696 5698 5701 5703 5705 5707 5709 5711 5713 5715 5718 5720 5723 5725 5727 5730 5732 5734 5736 5738 5739 5741 5742 5743 5743 5743 5744 5744 5744 5744 5743 5742 5741 5740 5739
5672 5674 5676 5677 5679 5681 5683 5685 5687 5690 5692 5695 5697 5699 5700 5702 5704 5706 5708 5710 5713 5715 5717 5719 5721 5723 5725 5728 5730 5731 5733 5734 5735 5735 5736 5736 5736 5736 5736 5735 5734 5733 5732 5731
5669 5670 5671 5673 5675 5676 5678 5680 5682 5685 5687 5689 5690 5692 5694 5696 5698 5700 5702 5704 5706 5708 5709 5711 5714 5716 5718 5720 5722 5724 5725 5726 5728 5728 5729 5729 5729 5729 5728 5727 5726 5726 5724 5723